{"data":{"norad_id":53744,"intl_designator":"2022-107AW","name":"STARLINK-4670","alt_names":[],"object_type":"PAYLOAD","status":"ACTIVE","operator":null,"country":"US","launch_date":"2022-09-05","launch_site_code":"AFETR","launch_vehicle":null,"mission":null,"orbit_class":"UNKNOWN","rcs_meters":null,"size_class":null,"mass_kg":null,"dimensions":null,"purposes":["comms"],"wikipedia_slug":null,"has_3d_model":false,"image_url":null,"decayed_at":null,"tle_current":{"epoch":"2026-05-24T18:21:48.257568Z","epoch_age_seconds":95299,"freshness":"FRESH","line1":"1 53744U 22107AW  26144.76514187  .00000295  00000+0  36621-4 0  9998","line2":"2 53744  53.2149 282.2270 0001174  89.0127 271.1000 15.08838629206089","mean_motion":15.08838629,"eccentricity":0.0001174,"inclination_deg":53.2149,"raan_deg":282.227,"arg_perigee_deg":89.0127,"mean_anomaly_deg":271.1,"bstar":3.6621e-5,"rev_number":20608,"period_min":95.437641396706,"perigee_km":538.93541991616,"apogee_km":540.55973921544,"semimajor_km":6917.8845795658,"source":"CELESTRAK","updated_at":"2026-05-25T13:38:17.539801Z"}}}